Location: Bothwell
(42.3833°S, 147.0000°E)
Time: 09:35:02
(UTC+11:00)

KKS-1 - Pass Details

Date: 29 September 2023
Orbit: 629 x 643 km, 98.2° (Epoch: 04 December)

Event Time Altitude Azimuth Distance (km) Brightness Sun altitude
Exits shadow 21:33:38 12° 171° (S) 1,932 ? -34.0°
Drops below altitude 10° 21:33:58 10° 173° (S) 2,047 ? -34.1°
Sets 21:36:22 0° 183° (S) 2,963 ? -34.4°
